Powrót do katalogu

HIMAWARI 4 AKM

AktywnyMEO
NORAD 20317·ROCKET BODY·🇯🇵 Japan

Wystrzelony Sep 5, 1989 z Tanegashima Space Center

Loading…

Następne Przeloty (najbliższe 24 godziny)

TLE

ŚwieżeSource: Space-Track

Epoka: Sep 13, 2026, 11:46 UTC

1 20317U 89070C   26256.49077650 -.00000286  00000-0  00000-0 0  9993
2 20317  12.5135 336.6204 0239196  65.8543 299.0722  0.98765424 47532

Śledź HIMAWARI 4 AKM w czasie rzeczywistym z AllMySat

Download on the App Store